CST,Max TemperatureF,Mean TemperatureF,Min TemperatureF,Max Dew PointF,MeanDew PointF,Min DewpointF,Max Humidity, Mean Humidity, Min Humidity, Max Sea Level PressureIn, Mean Sea Level PressureIn, Min Sea Level PressureIn, Max VisibilityMiles, Mean VisibilityMiles, Min VisibilityMiles, Max Wind SpeedMPH, Mean Wind SpeedMPH, Max Gust SpeedMPH,PrecipitationIn, CloudCover, Events, WindDirDegrees
2013-12-1,45,32,19,30,27,20,100,78,49,30.16,30.05,29.84,10,10,7,7,2,,0.00,0,,107
2013-12-2,63,48,32,36,33,28,98,69,35,29.83,29.61,29.51,10,10,7,14,5,20,0.00,0,,176
2013-12-3,45,37,29,35,33,29,100,87,66,29.70,29.59,29.49,10,8,5,15,4,23,0.00,3,,348
2013-12-4,33,24,16,32,18,9,100,88,71,30.07,29.78,29.67,10,8,2,26,15,33,0.00,6,,307
2013-12-5,17,12,6,10,2,-4,81,66,49,30.44,30.28,30.08,10,10,1,25,16,30,0.00,1,,307
2013-12-6,11,4,-3,-3,-5,-8,83,68,50,30.69,30.58,30.43,10,10,7,16,10,21,0.00,0,,322
2013-12-7,11,3,-5,9,-3,-9,89,73,53,30.73,30.61,30.39,10,9,2,10,4,,0.00,1,Snow,38
2013-12-8,17,8,0,14,10,-3,96,90,84,30.37,30.13,30.01,10,4,1,13,7,,0.02,6,Snow,80
2013-12-9,15,4,-8,9,-2,-13,92,76,61,30.32,30.20,30.04,10,10,10,15,9,23,0.00,0,,246
2013-12-10,29,20,10,27,16,5,96,76,62,30.27,30.13,30.03,10,10,2,22,10,26,0.00,1,Snow,236
2013-12-11,26,13,0,22,3,-5,87,73,61,30.65,30.52,30.29,10,10,5,21,12,31,0.00,1,Snow,268
2013-12-12,32,21,10,24,15,4,93,79,68,30.42,30.25,30.06,10,10,10,9,5,,0.00,0,,174
2013-12-13,33,24,14,27,21,13,100,90,75,30.11,29.97,29.89,10,10,7,12,3,18,0.00,1,,36
2013-12-14,23,18,12,20,15,11,95,87,77,30.23,30.18,30.11,10,10,7,15,9,22,0.00,4,Snow,325
2013-12-15,27,21,15,22,18,14,98,88,79,30.14,30.02,29.95,10,10,7,9,3,,0.00,0,,94
2013-12-16,49,30,12,34,24,12,98,84,54,30.16,30.04,29.96,10,9,7,18,2,28,0.00,0,,317
2013-12-17,42,32,23,30,23,16,100,71,34,30.29,30.20,30.07,10,10,3,21,9,28,0.00,0,,268
2013-12-18,51,39,26,32,27,23,95,69,45,30.06,29.80,29.70,10,10,10,13,7,20,0.00,0,,180
2013-12-19,33,24,16,30,23,16,99,86,70,29.92,29.82,29.74,10,9,3,17,7,23,0.00,3,,360
2013-12-20,18,14,11,15,13,11,97,91,86,29.99,29.93,29.88,10,7,2,16,11,23,0.00,7,Snow,324
2013-12-21,23,19,15,21,18,14,97,89,79,29.88,29.83,29.79,10,10,7,14,3,22,0.00,3,,19
2013-12-22,21,14,7,20,10,3,96,79,59,30.40,30.14,29.89,10,10,7,18,12,26,0.00,3,,326
2013-12-23,12,6,0,1,-5,-10,82,63,45,30.60,30.52,30.40,10,10,7,18,11,23,0.00,0,,313
2013-12-24,25,13,1,25,11,-9,99,81,59,30.50,30.24,30.07,10,9,5,21,11,30,0.00,5,,165
2013-12-25,43,32,20,29,23,19,99,81,51,30.29,30.24,30.18,10,10,10,29,10,38,0.00,2,,281
2013-12-26,49,36,23,26,22,19,87,67,37,30.25,30.15,30.08,10,10,10,10,5,,0.00,0,,239
2013-12-27,63,40,16,30,24,14,92,60,24,30.26,30.14,30.05,10,10,10,21,4,28,0.00,0,,227
2013-12-28,62,38,14,32,25,6,81,61,24,30.18,29.92,29.72,10,10,10,37,9,45,0.00,1,,229
2013-12-29,13,8,3,6,-8,-13,78,50,31,30.41,30.31,30.19,10,10,10,30,19,40,0.00,1,,330
2013-12-30,36,20,5,28,6,-8,87,60,41,30.28,30.16,30.02,10,10,10,28,9,34,0.00,3,,196
2013-12-31,32,20,7,19,10,5,92,78,56,30.27,30.15,30.02,10,10,10,15,5,21,0.00,1,,67